Location: Hermaringen
(48.5952°N, 10.2585°E)
Time: 00:40:58
(UTC+00:00)

Altair - Pass Details

Date: 22 February 2026
Orbit: 1502 x 1682 km, 47.2° (Epoch: 9 March)

Event Time Altitude Azimuth Distance (km) Brightness Sun altitude
Rises 01:18:36 0° 197° (SSW) 4,625 - -45.7°
Reaches altitude 10° 01:22:14 10° 185° (S) 3,643 - -45.3°
Maximum altitude 01:29:20 26° 133° (SE) 2,621 - -44.5°
Exits shadow 01:31:25 24° 113° (ESE) 2,736 8.8 -44.3°
Drops below altitude 10° 01:36:28 10° 82° (E) 3,693 9.9 -43.7°
Sets 01:40:10 0° 71° (ENE) 4,701 10.7 -43.3°
